AEROCUBE 8D

Last updated on Sun Dec 14 2025 00:03:50 GMT+0000 (Coordinated Universal Time)

1 41852U 16067E 25347.07502302 .00013012 00000+0 58844-3 0 9998 2 41852 98.0900 198.2197 0005053 63.7209 296.4543 15.21065735497744
UTC large
Height (km)
Speed (km/s)
/
Latitude / Longitude
Inclination (degrees)
Orbital Period (minutes)
Azimuth
Elevation
Range (km)
Doppler Factor

Next 0 passes for location: London (51.5072 / 0.1276)

Sorry there are no passes over London.